Weather History for Hagerstown, MD

Change the Weather History Date:

Tuesday, September 3, 2013

  Actual Average Record
Temperature  
Mean Temperature 75 °F -  
Max Temperature 81 °F 78 °F 97 °F (2010)
Min Temperature 68 °F 59 °F 53 °F (2001)
Cooling Degree Days 10    
Month to date cooling degree days 38  
Year to date cooling degree days 1023  
Growing Degree Days 22 (Base 50)    
Moisture  
Dew Point 58 °F    
Average Humidity 62    
Maximum Humidity 84    
Minimum Humidity 39    
Precipitation  
Precipitation 0.00 in - - ()
Month to date precipitation 1.76  
Year to date precipitation 20.91  
Sea Level Pressure  
Sea Level Pressure 29.89 in    
Wind  
Wind Speed 9 mph (NW)    
Max Wind Speed 18 mph    
Max Gust Speed 24 mph    
Visibility 10 miles    
Events      
Averages and records for this station are not official NWS values.
T = Trace of Precipitation, MM = Missing Value Source: NWS Daily Summary

Daily Weather History Graph

Daily Weather History Graph

Search for Another Location

Airport:

Trip Planner

Search our weather history database for the weather conditions in past years. The results will help you decide how hot, cold, wet, or windy it might be!

Date:

Astronomy

Sep. 03, 2013 Rise Set
Actual Time 6:41 AM EDT 7:38 PM EDT
Civil Twilight 6:13 AM EDT 8:06 PM EDT
Nautical Twilight 5:40 AM EDT 8:38 PM EDT
Astronomical Twilight 5:06 AM EDT 9:12 PM EDT
Moon 4:53 AM EDT (9/3) 6:24 PM EDT (9/3)
Length of Visible Light 13h 52m
Length of Day
12h 57m
Waning Crescent, 3% of the Moon is Illuminated
Sep 3
Waning Crescent
Sep 5
New
Sep 12
First Quarter
Sep 19
Full
Sep 26
Last Quarter

Hourly Weather History & Observations

Time (EDT) Temp. Heat Index Dew Point Humidity Pressure Visibility Wind Dir Wind Speed Gust Speed Precip Events Conditions
12:53 AM 77.0 °F - 66.0 °F 69% 29.77 in 10.0 mi SSW 5.8 mph - N/A   Clear
1:53 AM 75.9 °F - 66.0 °F 71% 29.78 in 10.0 mi SSW 4.6 mph - N/A   Clear
2:53 AM 73.0 °F - 66.9 °F 81% 29.80 in 10.0 mi WNW 9.2 mph - N/A   Clear
3:53 AM 72.0 °F - 64.9 °F 78% 29.81 in 10.0 mi NNW 6.9 mph - N/A   Clear
4:53 AM 70.0 °F - 64.9 °F 84% 29.82 in 10.0 mi NW 5.8 mph - N/A   Clear
5:53 AM 70.0 °F - 63.0 °F 78% 29.83 in 10.0 mi NNW 4.6 mph - N/A   Clear
6:53 AM 69.1 °F - 61.0 °F 75% 29.86 in 10.0 mi Calm Calm - N/A   Scattered Clouds
7:53 AM 68.0 °F - 61.0 °F 78% 29.89 in 10.0 mi Calm Calm - N/A   Clear
8:53 AM 72.0 °F - 62.1 °F 71% 29.90 in 10.0 mi NW 5.8 mph - N/A   Clear
9:53 AM 73.0 °F - 60.1 °F 64% 29.90 in 10.0 mi NW 10.4 mph - N/A   Clear
10:53 AM 73.9 °F - 57.9 °F 57% 29.90 in 10.0 mi WNW 10.4 mph - N/A   Partly Cloudy
11:53 AM 77.0 °F - 57.9 °F 52% 29.90 in 10.0 mi WNW 15.0 mph 19.6 mph N/A   Scattered Clouds
12:53 PM 80.1 °F 80.2 °F 55.9 °F 43% 29.89 in 10.0 mi West 16.1 mph - N/A   Partly Cloudy
1:53 PM 79.0 °F - 54.0 °F 42% 29.90 in 10.0 mi West 10.4 mph - N/A   Mostly Cloudy
2:53 PM 81.0 °F 80.7 °F 55.0 °F 41% 29.88 in 10.0 mi NW 15.0 mph 19.6 mph N/A   Partly Cloudy
3:53 PM 81.0 °F 80.5 °F 54.0 °F 39% 29.88 in 10.0 mi NW 12.7 mph - N/A   Clear
4:53 PM 80.1 °F 79.9 °F 53.1 °F 39% 29.88 in 10.0 mi NW 13.8 mph - N/A   Partly Cloudy
5:53 PM 78.1 °F - 52.0 °F 40% 29.90 in 10.0 mi NW 12.7 mph - N/A   Clear
6:53 PM 75.0 °F - 53.1 °F 46% 29.93 in 10.0 mi NNW 11.5 mph - N/A   Clear
7:53 PM 71.1 °F - 54.0 °F 55% 29.96 in 10.0 mi NW 9.2 mph - N/A   Clear
8:53 PM 69.1 °F - 54.0 °F 58% 29.99 in 10.0 mi NNW 6.9 mph - N/A   Clear
9:53 PM 66.9 °F - 54.0 °F 63% 30.01 in 10.0 mi NNW 10.4 mph - N/A   Clear
10:53 PM 64.9 °F - 54.0 °F 68% 30.02 in 10.0 mi NNW 6.9 mph - N/A   Clear
11:53 PM 64.0 °F - 53.1 °F 67% 30.02 in 10.0 mi NNW 6.9 mph - N/A   Clear